This is the latest recevied weather packets stored in our database for station/object KD7JB. If no packets are shown the sender has not sent any weather packets the latest 10 day(s).
| Time | Temp. | Humidity | Pressure | Rain* | Wind** | Luminosity | Snow |
|---|---|---|---|---|---|---|---|
| 1777821430 | 17.22° C | 40% | 1178.3 hPa | 0 mm | - | 290 W/m² | - |
| 1777821127 | 17.22° C | 41% | 1178.1 hPa | 0 mm | - | 274 W/m² | - |
| 1777820824 | 17.22° C | 41% | 1178.2 hPa | 0 mm | - | 260 W/m² | - |
| 1777820520 | 16.67° C | 43% | 1178.1 hPa | 0 mm | - | 247 W/m² | - |
| 1777820217 | 16.67° C | 43% | 1178.3 hPa | 0 mm | - | 232 W/m² | - |
| 1777819914 | 16.67° C | 42% | 1178.2 hPa | 0 mm | - | 211 W/m² | - |
| 1777819611 | 16.67° C | 43% | 1178.2 hPa | 0 mm | - | 191 W/m² | - |
| 1777819309 | 16.11° C | 42% | 1178.2 hPa | 0 mm | - | 178 W/m² | - |
| 1777819005 | 16.11° C | 43% | 1178.1 hPa | 0 mm | - | 173 W/m² | - |
| 1777818703 | 16.11° C | 43% | 1178.2 hPa | 0 mm | - | 161 W/m² | - |
| 1777818399 | 16.11° C | 44% | 1178 hPa | 0 mm | - | 147 W/m² | - |
| 1777818096 | 15.56° C | 45% | 1178 hPa | 0 mm | - | 134 W/m² | - |
| 1777817793 | 15.56° C | 45% | 1178.2 hPa | 0 mm | - | 116 W/m² | - |
| 1777817491 | 15.56° C | 45% | 1178.3 hPa | 0 mm | - | 107 W/m² | - |
| 1777817186 | 15.56° C | 45% | 1178.1 hPa | 0 mm | - | 97 W/m² | - |
| 1777816885 | 15.56° C | 45% | 1178.2 hPa | 0 mm | - | 86 W/m² | - |
| 1777816581 | 15° C | 45% | 1178.3 hPa | 0 mm | - | 72 W/m² | - |
| 1777816278 | 15° C | 46% | 1178.1 hPa | 0 mm | - | 44 W/m² | - |
| 1777815975 | 15° C | 45% | 1178.1 hPa | 0 mm | - | 33 W/m² | - |
| 1777815672 | 14.44° C | 46% | 1178.2 hPa | 0 mm | - | 39 W/m² | - |
| 1777815370 | 14.44° C | 46% | 1178.1 hPa | 0 mm | - | 40 W/m² | - |
| 1777815067 | 13.89° C | 47% | 1178.2 hPa | 0 mm | - | 33 W/m² | - |
| 1777814763 | 13.89° C | 45% | 1178 hPa | 0 mm | - | 28 W/m² | - |
| 1777814460 | 13.89° C | 46% | 1178.2 hPa | 0 mm | - | 25 W/m² | - |
| 1777814157 | 13.89° C | 47% | 1178 hPa | 0 mm | - | 21 W/m² | - |
* Rain latest hour (hover to see other rain measurements)
** Current wind speed in m/s (hover to see current wind gust speed)